Погода в Балашове

Погода в Балашове : погода сейчас, прогноз погоды и архив. Всё, что Вы хотите узнать о погоде в Балашове!

Хотите узнать прогноз погоды в Балашове? Тогда Вам сюда: Погода в Балашове

Поиск расширенной информации на нашем сайте:

Другие новости

Новости СМИ2

Главная страница сайта

Новости сайта

03.07.2017

Напоминаем, что на нашем специализированном сайте Метеоцентр.Азия вы можете получить высокодетализированные автоматические прогнозы погоды по пунктам России, СНГ и мира в авиационном формате (включающие направление и скорость ветра, видимость, явления погоды, количество и форму облачности, нижнюю и верхнюю границу облачности).

Рекомендуем: Остекление балконов в казани сравнить пульс цен балконы остекление цены.

Погода в Балашове - сегодня

Время (UTC), дата Ветер
(°,м/с) 
Видим.   Явления Облачность Т
(°С)
Тd
(°С)
f(%) Тe
(°С)
Pmin
(гПа)
dP
(гПа)
Po
(мм)
O2
(г/м3)
Тmin Tmax R s Состояние
почвы
18 17.11.17 190 (Ю) 20000 м    ясно 
-2.9 -3.7 94 -4  1027.8  0.3  756  308           
21 17.11.17 180 (Ю) 20000 м    ясно 
-4.1 -4.9 94 -5  1027.6  -0.3  756  310           
00 18.11.17 190 (Ю) 20000 м    ясно 
-5 -5.6 96 -6  1027.5  -0.2  756  311           
03 18.11.17 180 (Ю) 20000 м    ясно 
-5.5 -6.2 95 -7  1026.9  -0.7  755  311  -6.2         
06 18.11.17 180 (Ю) 20000 м    10/10 660 м 
[Sc]
-3.1 -3.9 94 -4  1026.9  0.2  755  308           
09 18.11.17 210 (ЮЗ) 20000 м    10/1 600 м средняя, верхняя 
[Sc|Ac trans|Ci fib]
+2.1 +0.7 90 +1  1025.9  -0.6  755  302           
12 18.11.17 190 (Ю) 20000 м    10/8 600 м средняя 
[Sc|Ac As]
+2.2 +0.5 88 +2  1024.9  -1  754  301           
15 18.11.17 160 (Ю) 20000 м    ясно 
-1.7 -2.5 94 -3  1024.2  -0.9  753  306    +2.7       
18 18.11.17 160 (Ю) 20000 м    ясно 
-2.4 -3.4 93 -3  1023.8  -0.5  753  306           
21 18.11.17 150 (ЮВ) 20000 м    1/0 средняя 
[Ac lent]
-1.9 -3.2 91 -3  1022.7  -0.8  752  306           
00 19.11.17 120 (ЮВ) 20000 м    ясно 
-0.9 -1 99 -3  1021.3  -0.8  751  304           
03 19.11.17 140 (ЮВ) 4000 м  дымка  10/10 100 м 
[St]
+0.3 -0.5 94 -1  1019.5  -1.6  750  302  -2.6         
06 19.11.17 150 (ЮВ) 2000 м  дымка{снег}  10/10 100 м 
[St]
+0.8 +0.3 96 -1  1019.2  -0.3  750  301           
09 19.11.17 140 (ЮВ) 0500 м  туман  ?/?  
+1.4 +1 97 1017.3  -1.8  748  300           
12 19.11.17 130 (ЮВ) 0500 м  туман  ?/?  
+2.5 +2.1 97 +1  1015.3  -1.9  747  298           
15 19.11.17 150 (ЮВ) 1000 м  слаб. морось{туман}  10/10 100 м 
[St]
+3.2 +2.8 97 +2  1014.4  -0.7  746  297    +3.2  0.9     
18 19.11.17 150 (ЮВ) 4000 м  слаб. морось{туман}  10/10 150 м 
[St]
+3.7 +3.3 97 +2  1013.6  -0.7  746  296           
21 19.11.17 160 (Ю) 4000 м  слаб. морось  10/10 150 м 
[St]
+5 +4.6 97 +3  1012.9  -0.6  745  294           
00 20.11.17 160 (Ю) 2000 м  слаб. морось  10/10 100 м 
[St]
+6 +5.5 97 +5  1012.6  0.1  745  293           
03 20.11.17 160 (Ю) 2000 м  слаб. морось  10/10 100 м 
[St]
+6.4 +5.9 97 +5  1012.5  0.1  745  292  +3.2       
06 20.11.17 160 (Ю) 4000 м  слаб. морось  10/10 210 м 
[St]
+6.3 +5.8 97 +5  1013.1  0.6  746  293           
09 20.11.17 150 (ЮВ) 10 км  {морось}  10/10 570 м 
[Sc]
+6.9 +6 94 +6  1012.6  -0.5  745  292           
12 20.11.17 150 (ЮВ) 4000 м  дымка  10/10 210 м 
[St]
+6.8 +5.9 94 +7  1011.7  -0.8  745  292           
15 20.11.17 150 (ЮВ) 2000 м  слаб. морось  10/10 100 м 
[St]
+6.8 +6.2 96 +6  1011.1  -0.7  744  292    +7.1  0.0     
18 20.11.17 140 (ЮВ) 4{10}  2000 м  дымка{морось}  10/10 100 м 
[St]
+6 +5.5 97 +4  1009.4  -0.7  743  292           
Время (UTC), дата Ветер
(°,м/с) 
Видим.   Явления Облачность Т
(°С)
Тd
(°С)
f(%) Тe
(°С)
Pmin
(гПа)
dP
(гПа)
Po
(мм)
O2
(г/м3)
Тmin Tmax R s Состояние
почвы

Для получения пояснительной информации подведите курсор к названию столбца.

ПОГОДА в Балашове - архив

Всё, что Вы хотите узнать о погоде в Балашове - удобно и подробно!

Выберите нужную дату (начиная с 1 января 2015* года) и нажмите кнопку "Найти".
Будут отображены архивные сводки погоды по пункту Балашов, начиная с указанной даты.


Отображать данные в формате CSV (для использования в таблицах Excel)


Внимание! Наш архив погоды предназначен исключительно для личного некоммерческого использования в познавательных целях. Если Вам необходимы официальные справки о состоянии погоды (для производственных, юридических, коммерческих и т.п. целей), обращайтесь в органы Росгидромета.

*Примечание: данная дата относится к архиву по метеостанциям СССР (Россия, СНГ, Балтия).
Архив по метеостанциям Зарубежной Европы и Азии (кроме Китая) хранится 10 дней, по другим регионам земного шара (Китай, Африка, Америка, Австралия, Океания) - 1 день.

Балашов - район местоположения метеостанции


Название, широта, долгота, высота метеостанции:
Балашов 51.6°ш. 43.2°д. 159 м над ур. моря [Российская Федерация]

Дополнительная информация

В oтличие oт бoльшинства пoгoдных сайтoв мы публикуем пoдрoбную метеoинфoрмацию в детальнoм прoфессиoнальнoм фoрмате.

Характеристики температуры и влажнoсти вoздуха измеряются на высoте 2 м в тени вдали oт зданий и деревьев.
Скoрoсть ветра измеряется на высoте 10 м (на урoвне рoста челoвека скoрoсть ветра ниже в 1.5-2 раза). Если метеoстанция нахoдится в гoрoде или в лесу, тo скoрoсть ветра занижена на 2-4 м/с пo сравнению с oткрытым местoм. Скoрoсть ветра над акватoриями крупных рек и oзёр, а также на вершинах хoлмoв на 2-5 м/с выше, чем в oбычных услoвиях.
Атмoсфернoе давление в разных тoчках местнoсти мoжет значительнo oтличаться oт давления на метеoстанции, в зависимoсти oт услoвий рельефа (при пoдъёме на 10 м давление пoнижается примернo на 1 мм рт.ст.).